Regional Weather Roundup
Issued by NWS Spokane, WA

Home | Current Version | Previous Version | Text Only | Print | Product List | Glossary On
Versions: 1 2 3 4 5 6 7 8 9 10 11 12 13 14 15 16 17 18 19 20 21 22 23 24 25 26 27 28 29 30 31 32 33 34 35 36 37 38 39 40 41 42 43 44 45 46 47 48 49 50
000
NZUS01 KOTX 120710
RWROTX

Eastern Washington/Northern Idaho Roundup
National Weather Service, Spokane WA
1100 PM PST MON DEC 11 2017

Note: "fair" indicated few or no clouds below 12,000 feet with no
significant weather and/or obstructions to visibility.

...Northeast Washington and Northern Idaho Panhandle...

CITY           SKY/WX    TMP DP  RH WIND       PRES   REMARKS
Spokane Intl   FOG       24  24 100 SW6       30.58R VSB 1/2 WCI  17
Spokane Downto CLOUDY    28  26  92 CALM      30.61S
Coeur d Alene  CLOUDY    24  23  96 CALM      30.58S
Deer Park      CLOUDY    24  23  96 CALM      30.59S
Sandpoint      CLEAR     21  19  93 N5        30.59R WCI  15
Bonners Ferry  FAIR      25  19  80 CALM      30.58R

...Southeast Washington and southern Idaho Panhandle...

CITY           SKY/WX    TMP DP  RH WIND       PRES   REMARKS
Walla Walla    CLOUDY    30  23  75 E7        30.65R WCI  23
Pullman/Moscow FOG       24  22  91 W5        30.58R VSB 1/4 WCI  18
Lewiston       CLOUDY    29  25  85 CALM      30.64R
Lowell           N/A     24  22  91 CALM      30.64R
Grangeville    FAIR      21  18  86 E3        30.51R

...Columbia Basin...

CITY           SKY/WX    TMP DP  RH WIND       PRES   REMARKS
Ephrata        CLOUDY    30  21  69 CALM      30.64R
Moses Lake     CLOUDY    29  24  82 S3        30.66R
Pasco          CLOUDY    32  26  78 E5        30.71S WCI  27
Richland       CLOUDY    33  29  85 CALM      30.71S
Hermiston      CLOUDY    31  26  82 CALM      30.69R
Pendleton      CLOUDY    28  23  81 NW6       30.63R WCI  22

...East Slopes Cascades...

CITY           SKY/WX    TMP DP  RH WIND       PRES   REMARKS
The Dalles     CLOUDY    34  25  69 CALM      30.69S
Yakima         CLOUDY    32  24  72 S7        30.65S WCI  26
Ellensburg     CLOUDY    29  22  75 MISG      30.60S
Stampede Pass  FOG       19  17  92 NE7       30.43S VSB 1/2 WCI  10
Wenatchee      CLOUDY    29  22  75 W5        30.64S WCI  24
Omak           CLOUDY    29  26  89 W5        30.64S WCI  24
Sunnyside      CLOUDY    30  25  81 CALM      30.67S

...Southern British Columbia...

CITY           SKY/WX    TMP DP  RH WIND       PRES   REMARKS
Penticton      CLOUDY    30  25  80 S17G25    30.62S WCI  18
Cranbrook      CLOUDY    18  16  93 VRB2      30.57S FOG
Creston          N/A     23  19  86 NE3         N/A

...Western Montana...

CITY           SKY/WX    TMP DP  RH WIND       PRES   REMARKS
Kalispell      CLOUDY    23  21  92 CALM      30.58S
Libby            N/A     25  21  86 SW3       30.59R
Missoula       FOG       17  14  88 CALM      30.59F VSB 1/4

...Neighboring Cities...

CITY           SKY/WX    TMP DP  RH WIND       PRES   REMARKS
Seattle        PTCLDY    39  24  55 SE10      30.40F
Portland       PTCLDY    32  25  75 SE7       30.49F WCI  26
Boise          CLOUDY    25  21  85 NE3       30.67S
Great Falls    CLOUDY    41  13  31 S15       30.28F
Calgary        MOCLDY    37  23  56 S8        30.11F



USA.gov is the U.S. government's official web portal to all federal, state and local government web resources and services.